Погода в Детчине

Россия / Калужская область     54°48′34″N   36°18′36″E
темп.,
°C
ветер,
м/с
пор.,
м/с
влажн.,
%
обл.,
%
осадки,
мм/ч
давл.,
гПа
погр.,
м
16 апреля, пт
пт1600:00+12в61377100 0.2 1014564
03:00+10в4985100 0.2 1015322
06:00+9всв4987100 0.0 1016296
09:00+12в467882 0.1 1017443
12:00+16в5660100 0.0 10171216
15:00+16в6859100 1.1 10171432
18:00+13в71278100 4.5 1017716
21:00+11вюв4992100 13.3 1018468
17 апреля, сб
сб1700:00+10в5993100 3.1 1018311
03:00+8всв379794 3.4 1019176
06:00+8всв489787 0.4 1019292
09:00+9всв5989100 0.7 1020546
12:00+10всв5987100 0.1 1019592
15:00+13всв71375100 0.3 10181136
18:00+11юв4881100 1.9 1018601
21:00+9ююв5796100 9.1 1018579
18 апреля, вс
вс1800:00+6юв2694100 3.9 1020354
03:00+5юв2596100 3.9 1020136
06:00+4в2295100 0.0 102151
09:00+7всв3487100 0.0 1020365
12:00+10всв457197 0.2 10201111
15:00+7в2491100 0.9 1021310
18:00+6всв599198 1.1 1022510
21:00+5всв599290 1.2 1022538
19 апреля, пн
пн1900:00+5всв4994100 0.0 1022452
03:00+5всв51094100 0.0 1022443
06:00+5в51094100 0.0 1022549
09:00+7в61088100 0.0 1022727
12:00+8в5882100 0.0 1022940
15:00+10в7976100 0.0 1021918
18:00+8всв71284100 0.1 1021736
21:00+7в71486100 0.1 1020729
20 апреля, вт
вт2000:00+7в81583100 0.6 1018920
03:00+7в81581100 0.7 1016801
06:00+5в81788100 0.9 1014787
09:00+5в91992100 7.1 1012814
12:00+5в112091100 5.1 10081001
15:00+7в112291100 11.2 10041350
18:00+7вюв112289100 3.9 10011194
21:00+8вюв81794100 10.6 999892